Frankfort, MI

11:48 PM EST on February 25, 2017 (GMT -0500)
Frankfort

Weather History for KFKS - November, 2013

Change the Weather History Date:

Saturday, November 9, 2013

  Actual Average (KMBL) Record (KMBL)
Temperature  
Mean Temperature 44 °F -  
Max Temperature 49 °F 46 °F 69 °F (1999)
Min Temperature 40 °F 34 °F 12 °F (2003)
Degree Days  
Heating Degree Days 20    
Moisture  
Dew Point 36 °F    
Average Humidity 72    
Maximum Humidity 89    
Minimum Humidity 59    
Precipitation  
Precipitation 0.00 in - - ()
Sea Level Pressure  
Sea Level Pressure 29.78 in    
Wind  
Wind Speed 14 mph (WSW)    
Max Wind Speed 25 mph    
Max Gust Speed 41 mph    
Visibility 10 miles    
Events Rain    
Averages and records for this station are not official NWS values.
T = Trace of Precipitation, MM = Missing Value Source: NWS Daily Summary

Daily Weather History Graph

Daily Weather History Graph

Search for Another Location

Airport or City:

Trip Planner

Search our weather history database for the weather conditions in past years. The results will help you decide how hot, cold, wet, or windy it might be!

Date:

Astronomy

Nov. 09, 2013 Rise Set
Actual Time 7:33 AM EST 5:23 PM EST
Civil Twilight 7:02 AM EST 5:54 PM EST
Nautical Twilight 6:27 AM EST 6:29 PM EST
Astronomical Twilight 5:53 AM EST 7:03 PM EST
Moon 1:07 PM EST (11/9) 11:56 PM EST (11/9)
Length of Visible Light 10h 51m
Length of Day
9h 49m
Waxing Crescent, 44% of the Moon is Illuminated
Nov 9
Waxing Crescent
Nov 10
First Quarter
Nov 17
Full
Nov 25
Last Quarter
Dec 2
New

Hourly Weather History & Observations

Time (EST) Temp. Windchill Dew Point Humidity Pressure Visibility Wind Dir Wind Speed Gust Speed Precip Events Conditions
12:14 AM 40.3 °F 33.9 °F 31.1 °F 70% 29.99 in 10.0 mi SE 10.4 mph - N/A   Overcast
12:34 AM 40.8 °F 34.1 °F 31.3 °F 69% 29.97 in 10.0 mi SSE 11.5 mph 16.1 mph N/A   Overcast
12:54 AM 41.2 °F 35.0 °F 31.3 °F 68% 29.95 in 10.0 mi SE 10.4 mph - N/A   Overcast
1:15 AM 41.5 °F 34.6 °F 31.3 °F 67% 29.94 in 10.0 mi SE 12.7 mph - N/A   Overcast
1:35 AM 41.9 °F 35.0 °F 31.5 °F 66% 29.92 in 10.0 mi SSE 12.7 mph - N/A   Overcast
1:55 AM 41.9 °F 35.0 °F 31.6 °F 67% 29.90 in 10.0 mi SSE 12.7 mph 18.4 mph N/A   Overcast
2:15 AM 42.4 °F 35.7 °F 31.6 °F 66% 29.88 in 10.0 mi SSE 12.7 mph 20.7 mph N/A   Overcast
2:35 AM 41.9 °F 35.4 °F 31.8 °F 67% 29.86 in 10.0 mi SSE 11.5 mph - N/A   Overcast
2:55 AM 41.0 °F 34.7 °F 32.7 °F 72% 29.85 in 10.0 mi SSE 10.4 mph - N/A Rain Light Rain
3:15 AM 41.2 °F 34.5 °F 33.6 °F 74% 29.83 in 10.0 mi SSE 11.5 mph 17.3 mph N/A Rain Light Rain
3:35 AM 40.6 °F 33.4 °F 34.7 °F 79% 29.82 in 10.0 mi SSE 12.7 mph 20.7 mph N/A Rain Light Rain
3:56 AM 40.3 °F 32.6 °F 34.9 °F 81% 29.80 in 10.0 mi SSE 13.8 mph 17.3 mph N/A Rain Light Rain
4:16 AM 40.1 °F 33.2 °F 35.6 °F 84% 29.79 in 10.0 mi SSE 11.5 mph 18.4 mph N/A Rain Light Rain
4:36 AM 40.5 °F 32.1 °F 36.3 °F 85% 29.78 in 7.0 mi SSE 16.1 mph 21.9 mph N/A Rain Light Rain
4:56 AM 40.3 °F 33.9 °F 36.9 °F 88% 29.77 in 5.0 mi SSE 10.4 mph 18.4 mph N/A Rain Rain
5:11 AM 40.3 °F 33.0 °F 37.0 °F 88% 29.77 in 7.0 mi SSE 12.7 mph 20.7 mph N/A Rain Light Rain
5:31 AM 40.1 °F 33.6 °F 37.0 °F 89% 29.74 in 10.0 mi SSE 10.4 mph - N/A Rain Light Rain
5:51 AM 40.5 °F 34.6 °F 37.2 °F 88% 29.73 in 10.0 mi SSE 9.2 mph - N/A Rain Light Rain
6:11 AM 40.8 °F 35.0 °F 37.2 °F 87% 29.72 in 10.0 mi SSE 9.2 mph 13.8 mph N/A   Overcast
6:31 AM 41.7 °F 34.8 °F 37.6 °F 85% 29.70 in 10.0 mi SSE 12.7 mph 16.1 mph N/A   Overcast
6:52 AM 42.6 °F 35.9 °F 37.8 °F 83% 29.70 in 10.0 mi SSE 12.7 mph 18.4 mph N/A   Overcast
7:12 AM 42.8 °F 36.6 °F 37.9 °F 83% 29.70 in 10.0 mi SSE 11.5 mph 17.3 mph N/A   Overcast
7:32 AM 43.9 °F 38.8 °F 38.5 °F 81% 29.70 in 10.0 mi South 9.2 mph - N/A   Overcast
7:52 AM 45.3 °F 39.3 °F 39.7 °F 81% 29.70 in 10.0 mi SSW 12.7 mph 20.7 mph N/A   Overcast
8:12 AM 48.7 °F - 40.1 °F 72% 29.69 in 10.0 mi SSW 10.4 mph 21.9 mph N/A   Overcast
8:32 AM 49.1 °F - 40.1 °F 71% 29.70 in 10.0 mi SW 11.5 mph 18.4 mph N/A   Overcast
8:52 AM 48.9 °F - 40.3 °F 72% 29.69 in 10.0 mi SW 9.2 mph 23.0 mph N/A   Overcast
9:12 AM 49.1 °F - 40.5 °F 72% 29.68 in 10.0 mi SW 10.4 mph 19.6 mph N/A   Overcast
9:32 AM 49.1 °F - 40.6 °F 73% 29.68 in 10.0 mi WSW 13.8 mph 20.7 mph N/A   Overcast
9:52 AM 49.5 °F - 40.5 °F 71% 29.68 in 10.0 mi WSW 11.5 mph 25.3 mph N/A   Overcast
10:12 AM 49.1 °F - 40.8 °F 73% 29.68 in 10.0 mi WSW 11.5 mph 23.0 mph N/A   Overcast
10:32 AM 49.1 °F - 40.6 °F 73% 29.68 in 10.0 mi WSW 11.5 mph 23.0 mph N/A   Overcast
10:53 AM 48.6 °F - 40.3 °F 73% 29.68 in 10.0 mi WSW 19.6 mph 27.6 mph N/A   Overcast
11:13 AM 48.4 °F - 40.8 °F 75% 29.68 in 10.0 mi WSW 15.0 mph 25.3 mph N/A   Overcast
11:33 AM 48.6 °F - 41.2 °F 76% 29.68 in 10.0 mi WSW 12.7 mph 24.2 mph N/A   Overcast
11:53 AM 48.4 °F - 41.0 °F 76% 29.68 in 10.0 mi WSW 13.8 mph 23.0 mph N/A   Overcast
12:13 PM 48.2 °F - 41.2 °F 77% 29.68 in 10.0 mi WSW 16.1 mph 26.5 mph N/A   Overcast
12:33 PM 48.2 °F - 41.7 °F 78% 29.68 in 10.0 mi West 17.3 mph 25.3 mph N/A   Overcast
12:53 PM 48.2 °F - 41.2 °F 77% 29.68 in 10.0 mi West 17.3 mph 25.3 mph N/A   Overcast
1:14 PM 46.9 °F - 41.9 °F 83% 29.67 in 7.0 mi WSW 10.4 mph 20.7 mph N/A Rain Light Rain
1:34 PM 47.3 °F - 41.9 °F 82% 29.68 in 7.0 mi WSW 12.7 mph 21.9 mph N/A   Overcast
1:54 PM 46.4 °F 41.1 °F 40.5 °F 80% 29.68 in 7.0 mi West 11.5 mph 24.2 mph N/A Rain Light Rain
2:14 PM 47.3 °F - 39.4 °F 74% 29.69 in 10.0 mi West 20.7 mph 28.8 mph N/A   Overcast
2:34 PM 47.7 °F - 38.5 °F 70% 29.69 in 10.0 mi West 16.1 mph 26.5 mph N/A   Overcast
2:54 PM 47.3 °F - 38.5 °F 71% 29.70 in 10.0 mi West 16.1 mph 28.8 mph N/A   Overcast
3:14 PM 47.5 °F - 38.3 °F 70% 29.71 in 10.0 mi West 18.4 mph 26.5 mph N/A   Overcast
3:34 PM 47.5 °F - 38.3 °F 70% 29.72 in 10.0 mi West 18.4 mph 31.1 mph N/A   Overcast
3:54 PM 47.3 °F - 37.6 °F 69% 29.73 in 10.0 mi West 16.1 mph 28.8 mph N/A   Overcast
4:14 PM 46.8 °F - 37.4 °F 70% 29.75 in 10.0 mi West 18.4 mph 31.1 mph N/A   Overcast
4:34 PM 46.6 °F - 37.6 °F 71% 29.75 in 10.0 mi West 23.0 mph 31.1 mph N/A   Overcast
4:54 PM 46.4 °F 39.2 °F 36.9 °F 69% 29.76 in 10.0 mi West 18.4 mph 27.6 mph N/A   Overcast
5:14 PM 46.4 °F 39.8 °F 36.7 °F 69% 29.77 in 10.0 mi West 16.1 mph 27.6 mph N/A   Overcast
5:35 PM 46.0 °F 38.3 °F 35.6 °F 67% 29.78 in 10.0 mi WNW 20.7 mph 28.8 mph N/A   Overcast
5:55 PM 45.7 °F 37.8 °F 34.9 °F 66% 29.79 in 10.0 mi WNW 20.7 mph 31.1 mph N/A   Overcast
6:12 PM 45.7 °F 37.8 °F 34.9 °F 66% 29.80 in 10.0 mi WNW 20.7 mph 32.2 mph N/A   Overcast
6:32 PM 45.7 °F 38.6 °F 35.1 °F 66% 29.81 in 10.0 mi West 17.3 mph 27.6 mph N/A   Overcast
6:52 PM 45.3 °F 37.1 °F 33.6 °F 64% 29.82 in 10.0 mi WNW 21.9 mph 31.1 mph N/A   Overcast
7:12 PM 44.6 °F 36.4 °F 33.6 °F 65% 29.82 in 10.0 mi WNW 20.7 mph 34.5 mph N/A   Overcast
7:33 PM 44.6 °F 35.9 °F 32.4 °F 62% 29.84 in 10.0 mi WNW 23.0 mph 41.4 mph N/A   Overcast
7:53 PM 44.6 °F 36.1 °F 32.9 °F 64% 29.84 in 10.0 mi WNW 21.9 mph 31.1 mph N/A   Overcast
8:13 PM 44.2 °F 35.0 °F 32.2 °F 63% 29.85 in 10.0 mi WNW 25.3 mph 36.8 mph N/A   Overcast
8:33 PM 44.1 °F 35.0 °F 32.0 °F 63% 29.85 in 10.0 mi WNW 24.2 mph 32.2 mph N/A   Overcast
8:53 PM 43.7 °F 35.2 °F 30.9 °F 61% 29.86 in 10.0 mi WNW 20.7 mph 28.8 mph N/A   Overcast
9:13 PM 43.5 °F 35.2 °F 31.5 °F 63% 29.86 in 10.0 mi WNW 19.6 mph 24.2 mph N/A   Overcast
9:33 PM 43.7 °F 35.4 °F 31.8 °F 63% 29.86 in 10.0 mi WNW 19.6 mph 28.8 mph N/A   Overcast
9:53 PM 43.3 °F 34.7 °F 31.5 °F 63% 29.86 in 10.0 mi WNW 20.7 mph 27.6 mph N/A   Overcast
10:13 PM 43.3 °F 35.2 °F 31.1 °F 62% 29.86 in 10.0 mi WNW 18.4 mph 28.8 mph N/A   Overcast
10:33 PM 43.2 °F 35.0 °F 31.1 °F 62% 29.87 in 10.0 mi WNW 18.4 mph 25.3 mph N/A   Overcast
10:53 PM 43.7 °F 35.7 °F 30.9 °F 61% 29.86 in 10.0 mi WNW 18.4 mph 29.9 mph N/A   Overcast
11:14 PM 43.9 °F 34.7 °F 30.6 °F 59% 29.86 in 10.0 mi WNW 24.2 mph 31.1 mph N/A   Overcast
11:34 PM 43.9 °F 35.9 °F 30.2 °F 59% 29.86 in 10.0 mi WNW 18.4 mph 28.8 mph N/A   Overcast
11:54 PM 43.7 °F 35.0 °F 32.2 °F 64% 29.87 in 10.0 mi WNW 21.9 mph 29.9 mph N/A   Overcast